Location: Newark
(23.3970°S, 47.6010°W)
Time: 16:52:40
(UTC+00:00)

S-56A Canister/Altair - All Passes

Search period start: 21 February 2020 00:00
Search period end: 02 March 2020 00:00
Orbit: 633 x 2499 km, 38.9° (Epoch: 20 February)

Date Brightness Start Highest point End Pass type
(mag) Time Alt. Az. Time Alt. Az. Time Alt. Az.
21 Feb - 01:07:49 10° NW 01:13:08 69° NE 01:17:35 10° ESE night (unlit)
21 Feb - 03:13:35 10° WSW 03:17:05 21° SSW 03:20:41 10° SSE night (unlit)
21 Feb - 05:19:45 10° SSW 05:22:36 15° S 05:25:50 10° SE visible
21 Feb - 07:22:29 10° SW 07:27:54 36° SSE 07:35:35 10° E visible
21 Feb - 09:25:23 10° WSW 09:32:35 72° NW 09:43:41 10° NE daylight
21 Feb - 11:31:19 10° W 11:38:11 22° NW 11:46:53 10° N daylight
22 Feb - 00:34:57 10° NW 00:40:35 55° NE 00:45:03 10° ESE visible
22 Feb - 02:40:34 10° W 02:44:24 25° SSW 02:48:08 10° SSE night (unlit)
22 Feb - 04:47:20 10° SSW 04:49:44 14° S 04:52:22 10° SE visible
22 Feb - 06:50:13 10° SW 06:55:06 30° SSE 07:01:44 10° E visible
22 Feb - 08:52:55 10° WSW 08:59:38 81° NW 09:10:04 10° NE daylight
22 Feb - 10:58:11 10° W 11:04:59 24° NW 11:13:54 10° N daylight
23 Feb - 00:02:05 10° NW 00:07:59 46° NE 00:12:31 10° ESE visible
23 Feb - 02:07:29 10° W 02:11:45 29° SSW 02:15:41 10° SE night (unlit)
23 Feb - 04:14:46 10° SSW 04:16:53 13° S 04:19:06 10° SSE night (unlit)
23 Feb - 06:17:58 10° SSW 06:22:19 25° SSE 06:27:56 10° ESE visible
23 Feb - 08:20:29 10° SW 08:26:45 89° SSE 08:36:27 10° NE visible
23 Feb - 10:25:13 10° W 10:31:51 27° NW 10:40:50 10° NNE daylight
23 Feb - 23:29:10 10° NNW 23:35:21 38° NE 23:39:58 10° ESE visible
24 Feb - 01:34:20 10° W 01:39:08 35° SSW 01:43:17 10° SE night (unlit)
24 Feb - 03:42:00 10° SSW 03:44:01 13° S 03:46:06 10° SSE night (unlit)
24 Feb - 05:45:44 10° SSW 05:49:32 21° SSE 05:54:12 10° ESE visible
24 Feb - 07:48:06 10° SW 07:53:58 77° SE 08:02:51 10° ENE visible
24 Feb - 09:52:22 10° W 09:58:47 30° NW 10:07:42 10° NNE daylight
24 Feb - 22:56:15 10° NNW 23:02:39 33° NE 23:07:23 10° E visible
25 Feb - 01:01:08 10° WNW 01:06:32 44° SSW 01:10:55 10° SE visible
25 Feb - 03:09:01 10° SW 03:11:12 13° S 03:13:24 10° SSE night (unlit)
25 Feb - 05:13:29 10° SSW 05:16:46 18° SSE 05:20:33 10° ESE visible
25 Feb - 07:15:46 10° SW 07:21:13 65° SSE 07:29:16 10° ENE visible
25 Feb - 09:19:37 10° W 09:25:48 33° NW 09:34:32 10° NNE daylight
25 Feb - 22:23:18 10° NNW 22:29:53 29° NE 22:34:46 10° E visible
26 Feb - 00:27:54 10° WNW 00:33:57 55° SSW 00:38:34 10° SE visible
26 Feb - 02:35:49 10° SW 02:38:24 14° SSW 02:40:53 10° SSE night (unlit)
26 Feb - 04:41:13 10° SSW 04:43:59 15° SSE 04:46:59 10° SE visible
26 Feb - 06:43:26 10° SW 06:48:32 54° SSE 06:55:43 10° ENE visible
26 Feb - 08:46:58 10° W 08:52:52 37° NW 09:01:20 10° NNE daylight
26 Feb - 21:50:21 10° NNW 21:57:04 26° NE 22:02:04 10° E daylight
26 Feb - 23:54:36 10° WNW 00:01:20 68° SSW 00:06:13 10° SE visible
27 Feb - 02:02:30 10° WSW 02:05:37 16° SSW 02:08:31 10° SSE night (unlit)
27 Feb - 04:08:55 10° SSW 04:11:09 13° S 04:13:32 10° SE night (unlit)
27 Feb - 06:11:08 10° SW 06:15:52 44° SSE 06:22:14 10° ENE visible
27 Feb - 08:14:23 10° WSW 08:20:00 42° NW 08:28:08 10° NNE visible
27 Feb - 21:17:26 10° NNW 21:24:11 23° NE 21:29:17 10° E daylight
27 Feb - 23:21:15 10° WNW 23:28:42 82° SW 23:33:52 10° SE visible
28 Feb - 01:29:04 10° WSW 01:32:52 19° SSW 01:36:13 10° SSE visible
28 Feb - 03:36:28 10° SSW 03:38:20 12° S 03:40:14 10° SSE night (unlit)
28 Feb - 05:38:50 10° SW 05:43:13 35° SSE 05:48:47 10° E visible
28 Feb - 07:41:51 10° WSW 07:47:12 48° NW 07:54:57 10° NE visible
28 Feb - 09:51:31 10° NW 09:52:19 10° NW 09:53:09 10° NNW daylight
28 Feb - 20:44:31 10° N 20:51:14 21° NE 20:56:25 10° E daylight
28 Feb - 22:47:53 10° NW 22:56:00 85° NE 23:01:29 10° ESE visible
29 Feb - 00:55:34 10° WSW 01:00:08 23° SSW 01:03:56 10° SSE visible
29 Feb - 03:03:49 10° SSW 03:05:29 12° S 03:07:10 10° SSE night (unlit)
29 Feb - 05:06:32 10° SW 05:10:34 29° SSE 05:15:24 10° E visible
29 Feb - 07:09:22 10° WSW 07:14:29 56° NW 07:21:46 10° NE visible
29 Feb - 09:16:57 10° NW 09:19:19 12° NW 09:21:58 10° NNW daylight
29 Feb - 20:11:41 10° N 20:18:13 19° NE 20:23:25 10° ENE daylight
29 Feb - 22:14:28 10° NW 22:23:15 73° NE 22:29:04 10° ESE visible
01 Mar - 00:22:00 10° W 00:27:26 28° SSW 00:31:41 10° SSE visible
01 Mar - 02:30:50 10° SSW 02:32:38 12° S 02:34:23 10° SSE night (unlit)
01 Mar - 04:34:12 10° SSW 04:37:54 24° SSE 04:42:05 10° ESE night (unlit)
01 Mar - 06:36:54 10° WSW 06:41:49 67° NW 06:48:38 10° NE visible
01 Mar - 08:43:24 10° WNW 08:46:24 13° NW 08:49:51 10° N visible
01 Mar - 19:38:56 10° N 19:45:09 17° NE 19:50:13 10° ENE daylight
01 Mar - 21:41:03 10° NW 21:50:27 63° NE 21:56:37 10° ESE daylight
01 Mar - 23:48:22 10° W 23:54:43 33° SSW 23:59:25 10° SE visible
